Regional Weather Roundup
Issued by NWS

Home | Current Version | Previous Version | Graphics & Text | Print | Product List | Glossary Off
Versions: 1 2 3 4 5 6 7 8 9 10 11 12 13 14 15 16 17 18 19 20 21 22 23 24 25 26 27 28 29 30 31 32 33 34 35 36 37 38 39 40 41 42 43 44 45 46 47 48 49 50

000
ASUS43 KMKX 291220
RWRWI

WISCONSIN REGIONAL WEATHER ROUNDUP
NATIONAL WEATHER SERVICE MILWAUKEE/SULLIVAN WI
600 AM CST THU JAN 29 2015

NOTE: "FAIR" INDICATES FEW OR NO CLOUDS BELOW 12,000 FEET WITH NO
SIGNIFICANT WEATHER AND/OR OBSTRUCTIONS TO VISIBILITY.

WIZ001-002-006>008-014>016-023>028-291300-
NORTHWEST WISCONSIN

CITY           SKY/WX    TMP DP  RH WIND       PRES   REMARKS
SUPERIOR ARPT  CLOUDY    31  25  78 N13G22    29.99R WCI  21
6HR MIN TEMP:  30; 6HR MAX TEMP:  32;

ASHLAND        CLOUDY    30  24  78 NW14      29.93R WCI  19
6HR MIN TEMP:  28; 6HR MAX TEMP:  31;

HAYWARD        CLOUDY    29  24  82 N10G16    29.92R WCI  20
6HR MIN TEMP:  27; 6HR MAX TEMP:  30;

SIREN          CLOUDY    31  27  84 N15       29.98R WCI  21
6HR MIN TEMP:  29; 6HR MAX TEMP:  32;

CUMBERLAND     CLOUDY    30  28  93 NW17G24   29.93R WCI  18
RICE LAKE      CLOUDY    32  28  85 NW12G20   29.94R WCI  23
6HR MIN TEMP:  28; 6HR MAX TEMP:  32;

CHETEK         CLOUDY    31  28  90 NW12G21   29.92R WCI  22
6HR MIN TEMP:  27; 6HR MAX TEMP:  31;

LADYSMITH      CLOUDY    31  28  91 NW20G26   29.89R WCI  18
6HR MIN TEMP:  27; 6HR MAX TEMP:  31;

EAU CLAIRE     CLOUDY    32  27  81 NW13      29.91R WCI  22
6HR MIN TEMP:  28; 6HR MAX TEMP:  32;

MENOMONIE      CLOUDY    33  30  88 NW17G26   29.93R FOG     WCI  22
6HR MIN TEMP:  29; 6HR MAX TEMP:  33;

NEW RICHMOND   CLOUDY    32  29  88 NW23G31   29.97R WCI  19
6HR MIN TEMP:  29; 6HR MAX TEMP:  32;

OSCEOLA        CLOUDY    33  29  85 NW21G32   30.01R WCI  21
6HR MIN TEMP:  30; 6HR MAX TEMP:  34;

$$

WIZ003>005-009-010-017-018-291300-
NORTH CENTRAL WISCONSIN

CITY           SKY/WX    TMP DP  RH WIND       PRES   REMARKS
MANITOWISH WTR CLOUDY    27  26  94 NW16G25   29.81R WCI  15
6HR MIN TEMP:  25; 6HR MAX TEMP:  27;

ARBOR VITAE    CLOUDY    29  27  92 NW14      29.80R FOG     WCI  19
6HR MIN TEMP:  27; 6HR MAX TEMP:  29;

WOODRUFF       CLOUDY    29  27  92 NW14      29.80R FOG     WCI  19
6HR MIN TEMP:  27; 6HR MAX TEMP:  29;

RHINELANDER    CLOUDY    26  24  92 NW10G16   29.79R FOG     WCI  16
6HR MIN TEMP:  24; 6HR MAX TEMP:  26; 6HR PCP: TRACE;

EAGLE RIVER    CLOUDY    26  25  94 NW10G17   29.78R FOG     WCI  17
6HR MIN TEMP:  25; 6HR MAX TEMP:  26;

LAND O LAKES   CLOUDY    28  27  98 NW10G16   29.79R FOG     WCI  18
6HR MIN TEMP:  25; 6HR MAX TEMP:  28;

PHILLIPS       CLOUDY    28  25  91 N9G16     29.83R WCI  19
6HR MIN TEMP:  25; 6HR MAX TEMP:  28;

TOMAHAWK       CLOUDY    26  25  94 NW8       29.82R FOG     WCI  18
6HR MIN TEMP:  25; 6HR MAX TEMP:  26;

MEDFORD        CLOUDY    26  25  96 NW13      29.83R FOG     WCI  15
6HR MIN TEMP:  25; 6HR MAX TEMP:  26;

MERRILL        CLOUDY    27  26  96 NW7       29.81R FOG     WCI  20
6HR MIN TEMP:  26; 6HR MAX TEMP:  27;

$$

WIZ029-030-035-036-043>047-291300-
CENTRAL WISCONSIN

CITY           SKY/WX    TMP DP  RH WIND       PRES   REMARKS
WAUSAU         CLOUDY    27  25  92 NW9       29.80R FOG     WCI  18
6HR MIN TEMP:  25; 6HR MAX TEMP:  27;

MOSINEE        CLOUDY    27  27 100 NW8       29.81R FOG     WCI  18
MARSHFIELD     CLOUDY    28  25  88 NW15      29.84R FOG     WCI  16
6HR MIN TEMP:  27; 6HR MAX TEMP:  28;

STEVENS POINT  CLOUDY    26  24  93 NW6       29.82R FOG     WCI  19
6HR MIN TEMP:  24; 6HR MAX TEMP:  26;

WAUPACA        CLOUDY    31  26  84 NW10G17   29.80R HAZE    WCI  22
6HR MIN TEMP:  30; 6HR MAX TEMP:  31;

WAUTOMA        CLOUDY    29  28  96 NW12G20   29.82R FOG     WCI  19
6HR MIN TEMP:  28; 6HR MAX TEMP:  29;

WISC RAPIDS    CLOUDY    29  24  82 NW13      29.84R WCI  19
6HR MIN TEMP:  27; 6HR MAX TEMP:  29;

CAMP DOUGLAS   CLOUDY    29  29 100 NW14      29.86R WCI  18
6HR MIN TEMP:  28; 6HR MAX TEMP:  29; 6HR PCP: TRACE;

$$

WIZ011>013-019>022-031-037>040-048>050-291300-
NORTHEAST WISCONSIN

CITY           SKY/WX    TMP DP  RH WIND       PRES   REMARKS
ANTIGO         CLOUDY    25  25  99 NW10      29.78R FOG     WCI  15
6HR MIN TEMP:  24; 6HR MAX TEMP:  25;

SHAWANO        CLOUDY    31  26  83 NW7       29.79R FOG     WCI  24
6HR MIN TEMP:  30; 6HR MAX TEMP:  32;

OCONTO         CLOUDY    29  27  93 MISG      29.77R
6HR MIN TEMP:  29; 6HR MAX TEMP:  31;

STURGEON BAY   CLOUDY    28  25  86 NW10      29.78R WCI  19
6HR MIN TEMP:  30; 6HR MAX TEMP:  34;

GREEN BAY      CLOUDY    30  25  81 NW12      29.77R HAZE    WCI  20
6HR MIN TEMP:  30; 6HR MAX TEMP:  32;

MANITOWOC      CLOUDY    31  29  92 NW5       29.76R FOG     WCI  26
6HR MIN TEMP:  31; 6HR MAX TEMP:  34; 6HR PCP:  0.03;

APPLETON       CLOUDY    28  25  86 NW13      29.78R WCI  18
CLINTONVILLE   CLOUDY    30  27  86 NW12      29.79R FOG     WCI  21
OSHKOSH        CLOUDY    30  25  81 NW10      29.78R HAZE    WCI  21
6HR MIN TEMP:  30; 6HR MAX TEMP:  31; 6HR PCP:  0.01;

$$

WIZ032>034-041-042-053>061-291300-
SOUTHWEST WISCONSIN

CITY           SKY/WX    TMP DP  RH WIND       PRES   REMARKS
LA CROSSE      CLOUDY    33  28  81 NW10      29.91R WCI  25
6HR MIN TEMP:  32; 6HR MAX TEMP:  33;

SPARTA         CLOUDY    30  28  93 NW9       29.90R FOG     WCI  22
6HR MIN TEMP:  29; 6HR MAX TEMP:  30;

VIROQUA        CLOUDY    30  30 100 NW14G22   29.86R WCI  19
6HR MIN TEMP:  30; 6HR MAX TEMP:  31;

BOSCOBEL       CLOUDY    34  26  72 N13G25    29.88R WCI  25
6HR MIN TEMP:  33; 6HR MAX TEMP:  34;

PRAIRIE DU CHI CLOUDY    33  27  79 NW10      29.90R WCI  25
6HR MIN TEMP:  32; 6HR MAX TEMP:  33;

PLATTEVILLE    CLOUDY    32  30  90 NW20G25   29.83R WCI  21
6HR MIN TEMP:  31; 6HR MAX TEMP:  33;

$$

WIZ056-057-062-063-064-067-068-291300-
SOUTH CENTRAL WISCONSIN

CITY           SKY/WX    TMP DP  RH WIND       PRES   REMARKS
REEDSBURG      FLURRIES  30  27  90 NW13G22   29.84R WCI  20
6HR MIN TEMP:  29; 6HR MAX TEMP:  31;

BARABOO/DELLS  CLOUDY    29  27  91 NW13G21   29.82R FOG     WCI  19
6HR MIN TEMP:  29; 6HR MAX TEMP:  31;

LONE ROCK      FLURRIES  32  27  81 NW13G22   29.85R WCI  22
6HR MIN TEMP:  32; 6HR MAX TEMP:  33; 6HR PCP: TRACE;

MINERAL POINT  CLOUDY    32  30  93 NW13G22   29.82R WCI  22
MADISON        CLOUDY    32  27  81 NW10      29.79R HAZE    WCI  24
6HR MIN TEMP:  31; 6HR MAX TEMP:  33;

MIDDLETON      CLOUDY    32  29  87 N16       29.80R WCI  22
6HR MIN TEMP:  32; 6HR MAX TEMP:  33;

WATERTOWN      CLOUDY    31  27  86 NW8       29.77R WCI  23
MONROE         CLOUDY    32  30  93 NW12      29.78R WCI  23
JANESVILLE     CLOUDY    34  28  80 NW13      29.76R WCI  25
$$

WIZ051-052-058>065-066-070>072-291300-
SOUTHEAST WISCONSIN

CITY           SKY/WX    TMP DP  RH WIND       PRES   REMARKS
MILWAUKEE      CLOUDY    33  26  75 NW5       29.73R WCI  29
6HR MIN TEMP:  32; 6HR MAX TEMP:  33; 6HR PCP: TRACE;

WAUKESHA       CLOUDY    28  25  86 NW7       29.75R WCI  21
MILWAUKEE/TIMM CLOUDY    32  27  80 NW6       29.74R WCI  26
RACINE         CLOUDY    33  27  78 NW5       29.74R WCI  29
6HR MIN TEMP:  32; 6HR MAX TEMP:  34;

BURLINGTON     CLOUDY    30  25  80 N6        29.74R WCI  24
6HR MIN TEMP:  30; 6HR MAX TEMP:  33;

KENOSHA        CLOUDY    33  27  78 NW6       29.72R WCI  28
6HR MIN TEMP:  30; 6HR MAX TEMP:  35;

FOND DU LAC    CLOUDY    30  24  78 NW10      29.77R WCI  21
6HR MIN TEMP:  30; 6HR MAX TEMP:  32; 6HR PCP: TRACE;

SHEBOYGAN      CLOUDY    32  26  78 NW5       29.75R WCI  27
6HR MIN TEMP:  31; 6HR MAX TEMP:  33; 6HR PCP:  0.07;

WEST BEND      CLOUDY    32  25  74 NW6       29.74R WCI  26
JUNEAU         CLOUDY    30  26  86 NW7       29.78R WCI  23
6HR MIN TEMP:  29; 6HR MAX TEMP:  31;

$$

LSZ147-162-291300-
LAKE SUPERIOR

STATION/POSITION TIME  TEMP    WIND        PRES    WAVE
                       AIR SEA DIR/SP/G            HT/PER
                 (UTC) (F)     (DEG/KT/KT) (MB)    (FT/S)
DEVILS ISLAND    1200   31     330/ 26/ 28 1013.9R
PORT WING        1140   32     320/ 17/ 21 1014.2R
SAXON HARBOR     1140   32     330/ 15/ 19 1012.2R
$$

LMZ867-665-643>646-291300-
LAKE MICHIGAN

STATION/POSITION TIME  TEMP    WIND        PRES    WAVE
                       AIR SEA DIR/SP/G            HT/PER


USA.gov is the U.S. government's official web portal to all federal, state and local government web resources and services.